{"data":{"norad_id":69308,"epoch":"2026-09-19T12:27:29.594592Z","epoch_age_seconds":113715,"freshness":"FRESH","line1":"1 69308U 26119N   26262.51909253  .00011011  00000+0  34280-3 0  9990","line2":"2 69308  97.2844 287.2767 0000466  46.4177 313.7105 15.33455268 18513","mean_motion":15.33455268,"eccentricity":4.66e-5,"inclination_deg":97.2844,"raan_deg":287.2767,"arg_perigee_deg":46.4177,"mean_anomaly_deg":313.7105,"bstar":0.0003428,"rev_number":1851,"period_min":93.905575861897,"perigee_km":465.19371023226,"apogee_km":465.83153837725,"semimajor_km":6843.6496243048,"source":"CELESTRAK","updated_at":"2026-09-20T09:00:44.156327Z"}}